TimeMST,TemperatureF,Dew PointF,Humidity,Sea Level PressureIn,VisibilityMPH,Wind Direction,Wind SpeedMPH,Gust SpeedMPH,PrecipitationIn,Events,Conditions,WindDirDegrees,DateUTC
12:53 AM,30.9,19.0,61,29.85,10.0,North,6.9,-,N/A,,Clear,360,2012-12-08 07:53:00
1:53 AM,35.1,19.9,54,29.82,10.0,Calm,Calm,-,N/A,,Clear,0,2012-12-08 08:53:00
2:53 AM,32.0,19.9,61,29.82,10.0,WSW,5.8,-,N/A,,Clear,250,2012-12-08 09:53:00
3:53 AM,25.0,17.1,72,29.86,10.0,Calm,Calm,-,N/A,,Clear,0,2012-12-08 10:53:00
4:53 AM,19.9,14.0,78,29.89,10.0,Calm,Calm,-,N/A,,Clear,0,2012-12-08 11:53:00
5:53 AM,21.0,14.0,74,29.92,10.0,NNE,3.5,-,N/A,,Clear,20,2012-12-08 12:53:00
6:53 AM,21.9,15.1,75,29.93,10.0,NE,4.6,-,N/A,,Clear,50,2012-12-08 13:53:00
7:53 AM,24.1,16.0,71,29.94,10.0,NNE,3.5,-,N/A,,Clear,30,2012-12-08 14:53:00
8:53 AM,36.0,21.9,57,29.91,10.0,Calm,Calm,-,N/A,,Clear,0,2012-12-08 15:53:00
9:53 AM,42.1,21.9,45,29.89,10.0,Calm,Calm,-,N/A,,Clear,0,2012-12-08 16:53:00
10:53 AM,46.0,24.1,42,29.88,10.0,WSW,10.4,-,N/A,,Clear,250,2012-12-08 17:53:00
11:53 AM,46.0,23.0,40,29.83,10.0,WSW,12.7,-,N/A,,Clear,250,2012-12-08 18:53:00
12:53 PM,48.9,21.0,33,29.78,10.0,West,17.3,26.5,N/A,,Clear,260,2012-12-08 19:53:00
1:53 PM,51.1,17.1,26,29.74,10.0,WSW,24.2,31.1,N/A,,Clear,250,2012-12-08 20:53:00
2:53 PM,52.0,18.0,26,29.74,10.0,WSW,21.9,31.1,N/A,,Clear,250,2012-12-08 21:53:00
3:53 PM,51.1,15.1,24,29.78,10.0,WSW,13.8,-,N/A,,Clear,250,2012-12-08 22:53:00
4:53 PM,46.9,14.0,27,29.82,10.0,WSW,4.6,-,N/A,,Clear,250,2012-12-08 23:53:00
5:53 PM,45.0,14.0,29,29.84,10.0,West,11.5,-,N/A,,Clear,260,2012-12-09 00:53:00
6:53 PM,42.1,14.0,32,29.86,10.0,Calm,Calm,-,N/A,,Clear,0,2012-12-09 01:53:00
7:53 PM,37.9,14.0,38,29.88,10.0,Calm,Calm,-,N/A,,Clear,0,2012-12-09 02:53:00
8:53 PM,39.9,14.0,35,29.82,10.0,Calm,Calm,-,N/A,,Clear,0,2012-12-09 03:53:00
9:53 PM,39.0,14.0,36,29.80,10.0,Calm,Calm,-,N/A,,Clear,0,2012-12-09 04:53:00
10:53 PM,37.9,14.0,38,29.80,10.0,Calm,Calm,-,N/A,,Clear,0,2012-12-09 05:53:00
11:53 PM,28.9,12.0,49,29.82,10.0,ESE,3.5,-,N/A,,Clear,110,2012-12-09 06:53:00